Location: Central Coast
(33.3208°S, 151.2336°E)
Time: 10:58:07
(UTC+11:00)

ISS - Visible Passes

Search period start: 19 November 2019 00:00
Search period end: 29 November 2019 00:00
Orbit: 412 x 421 km, 51.6° (Epoch: 19 November)

Date Brightness Start Highest point End Pass type
(mag) Time Alt. Az. Time Alt. Az. Time Alt. Az.
25 Nov -2.2 05:07:03 10° NNW 05:10:06 32° NE 05:13:10 10° ESE visible
26 Nov -1.4 04:19:39 10° NNE 04:21:48 17° NE 04:24:05 10° E visible
27 Nov -3.6 05:06:28 10° NW 05:09:51 68° SW 05:13:15 10° SE visible
28 Nov -3.4 04:19:53 28° NNW 04:21:25 59° NE 04:24:47 10° SE visible
